Weather History for Rogers, AR

Change the Weather History Date:

Friday, April 19, 2013

  Actual Average Record
Temperature  
Mean Temperature 43 °F -  
Max Temperature 53 °F 65 °F 84 °F (2011)
Min Temperature 33 °F 47 °F 33 °F (2013)
Degree Days  
Heating Degree Days 22    
Growing Degree Days 0 (Base 50)    
Moisture  
Dew Point 26 °F    
Average Humidity 55    
Maximum Humidity 75    
Minimum Humidity 35    
Precipitation  
Precipitation 0.00 in - - ()
Sea Level Pressure  
Sea Level Pressure 30.07 in    
Wind  
Wind Speed 12 mph (West)    
Max Wind Speed 17 mph    
Max Gust Speed 28 mph    
Visibility 10 miles    
Events      
Averages and records for this station are not official NWS values.
T = Trace of Precipitation, MM = Missing Value Source: NWS Daily Summary

Daily Weather History Graph

Daily Weather History Graph

Search for Another Location

Airport:

Trip Planner

Search our weather history database for the weather conditions in past years. The results will help you decide how hot, cold, wet, or windy it might be!

Date:

Astronomy

Apr. 19, 2013 Rise Set
Actual Time 6:37 AM CDT 7:54 PM CDT
Civil Twilight 6:10 AM CDT 8:21 PM CDT
Nautical Twilight 5:38 AM CDT 8:53 PM CDT
Astronomical Twilight 5:05 AM CDT 9:26 PM CDT
Moon 1:49 PM CDT (4/19) 2:42 AM CDT (4/19)
Length of Visible Light 14h 10m
Length of Day
13h 16m
First Quarter, 62% of the Moon is Illuminated
Apr 19
First Quarter
Apr 25
Full
May 2
Last Quarter
May 9
New
May 17
First Quarter

Hourly Weather History & Observations

Time (CDT) Temp. Windchill Dew Point Humidity Pressure Visibility Wind Dir Wind Speed Gust Speed Precip Events Conditions
12:32 AM 37.4 °F 28.5 °F 26.6 °F 65% 30.00 in 10.0 mi WNW 15.0 mph 21.9 mph 0.00 in   Overcast
12:57 AM 37.0 °F 28.1 °F 25.0 °F 62% 30.02 in 10.0 mi West 15.0 mph 24.2 mph 0.00 in   Overcast
1:57 AM 36.0 °F 27.1 °F 26.1 °F 67% 30.02 in 10.0 mi West 13.8 mph - N/A   Overcast
2:57 AM 36.0 °F 28.0 °F 27.0 °F 70% 30.01 in 10.0 mi West 11.5 mph 18.4 mph N/A   Overcast
3:57 AM 36.0 °F 28.5 °F 27.0 °F 70% 30.01 in 10.0 mi West 10.4 mph 19.6 mph N/A   Overcast
4:57 AM 35.1 °F 24.8 °F 25.0 °F 67% 30.01 in 10.0 mi West 17.3 mph 26.5 mph 0.00 in   Mostly Cloudy
5:57 AM 34.0 °F 25.5 °F 26.1 °F 73% 30.04 in 10.0 mi West 11.5 mph 19.6 mph N/A   Overcast
6:57 AM 33.1 °F 24.4 °F 26.1 °F 75% 30.07 in 10.0 mi West 11.5 mph 19.6 mph N/A   Clear
7:57 AM 34.0 °F 25.5 °F 26.1 °F 73% 30.09 in 10.0 mi WNW 11.5 mph - N/A   Clear
8:57 AM 36.0 °F 26.7 °F 25.0 °F 64% 30.10 in 10.0 mi WNW 15.0 mph 23.0 mph N/A   Scattered Clouds
9:57 AM 39.0 °F 30.6 °F 25.0 °F 57% 30.11 in 10.0 mi West 15.0 mph 21.9 mph N/A   Partly Cloudy
10:57 AM 42.1 °F 35.2 °F 25.0 °F 51% 30.11 in 10.0 mi NW 12.7 mph 23.0 mph N/A   Clear
11:57 AM 44.1 °F 38.1 °F 25.0 °F 47% 30.12 in 10.0 mi West 11.5 mph 19.6 mph N/A   Clear
12:57 PM 46.9 °F - 25.0 °F 42% 30.10 in 10.0 mi WNW 12.7 mph 19.6 mph N/A   Clear
1:57 PM 48.0 °F - 25.0 °F 41% 30.09 in 10.0 mi West 13.8 mph 27.6 mph N/A   Clear
2:57 PM 50.0 °F - 25.0 °F 38% 30.09 in 10.0 mi West 13.8 mph 20.7 mph N/A   Clear
3:57 PM 52.0 °F - 25.0 °F 35% 30.08 in 10.0 mi West 12.7 mph 24.2 mph N/A   Clear
4:57 PM 53.1 °F - 26.1 °F 35% 30.07 in 10.0 mi West 15.0 mph 24.2 mph N/A   Clear
5:57 PM 53.1 °F - 28.0 °F 38% 30.09 in 10.0 mi WNW 10.4 mph - N/A   Scattered Clouds
6:57 PM 52.0 °F - 25.0 °F 35% 30.08 in 10.0 mi WSW 9.2 mph - N/A   Clear
7:57 PM 50.0 °F - 27.0 °F 41% 30.08 in 10.0 mi SW 4.6 mph - N/A   Clear
8:57 PM 48.9 °F - 28.0 °F 44% 30.09 in 10.0 mi South 4.6 mph - N/A   Clear
9:57 PM 46.9 °F - 28.0 °F 48% 30.12 in 10.0 mi South 4.6 mph - N/A   Mostly Cloudy
10:57 PM 43.0 °F - 30.9 °F 62% 30.13 in 10.0 mi Calm Calm - N/A   Clear
11:57 PM 41.0 °F 37.1 °F 32.0 °F 70% 30.12 in 10.0 mi South 5.8 mph - N/A   Clear